Theta_e
332 333 334 335 336 337 336 335 332 331 333 331 332 331 322 315 315 315 320 329 325 324 326 317 315 324 329 332 333 332 329 311 310
330 332 333 333 334 334 334 334 333 334 334 333 330 331 328 326 324 321 325 333 336 323 324 321 314 315 327 330 331 332 330 321 309
330 331 332 332 333 333 334 334 333 333 334 333 329 331 327 328 330 331 328 330 329 328 333 329 320 313 320 328 329 332 329 321 311
331 331 331 332 333 333 333 334 333 333 333 331 331 328 326 326 332 333 332 332 333 327 332 332 325 313 316 326 329 329 323 312 312
332 332 331 332 332 333 334 334 332 333 333 331 329 327 324 325 332 333 332 332 332 326 333 331 320 318 313 325 328 324 313 312 311
330 330 331 331 332 334 335 333 331 332 332 331 331 330 329 327 332 333 333 332 328 331 331 330 325 313 312 319 323 315 326 325 315
330 330 330 330 331 332 334 332 330 329 331 331 330 329 328 327 328 333 333 331 329 328 329 327 329 324 313 320 325 325 325 327 326
332 331 331 331 332 333 334 331 327 327 327 328 330 328 328 326 324 328 331 330 330 327 329 326 326 329 329 328 328 328 328 327 325
332 332 332 332 331 334 333 328 325 329 330 328 331 329 330 330 328 327 328 329 330 323 323 324 325 326 327 327 325 328 328 326 325
331 330 331 331 331 331 330 326 325 327 329 327 326 327 331 330 330 331 329 329 331 329 326 324 326 329 329 329 328 327 327 326 328
329 329 330 332 329 329 327 326 325 328 325 323 326 327 330 329 329 331 329 331 332 330 329 329 328 328 330 329 329 329 328 329 329
327 326 327 328 327 327 327 326 325 324 325 327 327 327 328 330 329 331 331 333 332 331 329 329 330 330 330 330 329 328 328 327 327
325 325 327 327 326 324 322 323 326 326 326 326 327 327 329 330 330 331 332 332 331 330 329 329 330 330 329 328 328 327 326 325 325
328 327 329 328 325 324 322 322 325 327 326 327 326 325 325 326 330 330 330 328 331 332 331 330 329 329 328 327 326 325 324 324 324
329 328 329 329 326 323 323 323 327 328 327 327 324 323 323 322 323 325 329 328 329 329 329 328 328 327 325 324 323 322 323 321 320
328 328 329 327 323 324 324 323 324 327 326 323 324 325 325 326 326 328 329 329 329 329 328 327 326 324 323 322 322 321 321 320 319
326 327 328 325 324 325 325 325 327 327 324 324 325 322 323 326 327 326 325 328 326 326 326 326 324 324 322 320 319 316 314 312 312
323 324 325 324 325 326 326 326 326 326 323 324 323 320 318 319 322 322 323 324 324 323 325 323 323 322 321 318 316 315 312 310 311
316 316 320 316 321 315 326 326 326 326 324 323 323 323 323 320 314 317 322 322 321 321 320 321 321 319 317 314 313 311 308 306 309
314 314 313 316 318 311 308 324 321 322 324 324 323 322 321 320 319 314 313 317 318 317 316 319 317 317 315 315 312 310 306 305 307
Wind_Speed
23 24 24 24 25 25 27 26 26 24 23 23 24 24 23 22 23 23 25 20 18 19 16 18 20 23 28 26 23 20 19 21 24
23 24 25 25 26 28 26 26 26 26 25 25 25 24 24 23 23 22 24 24 20 16 16 18 19 23 29 25 24 21 18 18 24
24 25 25 24 25 26 26 27 27 27 26 27 27 26 24 23 22 21 24 23 19 20 18 15 15 21 27 25 24 21 17 16 21
24 23 24 25 26 27 27 28 28 29 29 31 29 26 24 23 24 21 19 22 21 23 19 16 15 19 28 26 22 19 17 17 22
22 23 25 26 27 27 28 30 31 31 32 32 29 26 24 25 24 23 20 21 23 24 22 17 17 23 27 28 22 19 19 21 24
23 25 26 30 29 29 30 32 34 36 36 35 29 28 25 24 25 23 20 23 24 25 22 20 21 23 26 28 23 22 24 24 25
24 25 26 27 32 34 33 38 38 37 38 35 30 26 24 24 25 24 21 24 25 25 22 23 25 24 27 28 24 24 25 25 25
22 23 24 25 29 33 39 44 42 38 37 36 33 29 27 24 27 25 23 25 27 29 26 26 27 27 26 29 27 26 24 24 24
23 24 24 25 29 38 38 46 40 38 36 32 31 31 29 27 27 26 25 28 29 29 30 29 27 26 25 25 26 25 23 23 23
20 21 23 21 22 27 31 39 40 37 36 31 29 29 30 31 30 27 28 30 31 32 31 31 29 29 28 27 26 24 23 23 22
23 24 22 24 20 20 27 37 40 33 35 34 31 29 27 30 31 30 29 31 33 33 32 31 31 30 31 28 26 28 26 26 26
24 22 24 28 23 25 32 42 37 41 38 28 30 27 27 29 31 32 31 36 35 34 32 30 31 31 33 32 30 30 28 26 24
25 22 25 27 33 26 23 34 38 40 40 34 29 23 28 24 29 30 31 38 29 31 33 34 36 36 33 31 29 26 26 24 22
30 27 29 36 37 26 26 31 37 37 37 35 32 26 19 18 22 24 23 28 33 35 37 35 35 31 29 27 25 24 25 24 23
32 32 36 38 34 30 32 31 40 41 37 38 32 28 25 24 24 22 26 28 37 40 38 31 30 25 24 23 23 24 23 23 22
33 36 37 40 37 35 34 35 38 39 41 37 33 29 26 27 28 31 39 43 43 40 40 34 31 26 24 23 23 22 19 18 18
44 42 44 43 38 40 37 37 44 46 43 40 37 26 29 34 35 41 42 44 41 42 36 32 26 23 23 24 22 17 16 15 15
38 42 47 47 47 42 40 40 43 47 45 43 30 22 11 28 33 35 36 32 31 37 34 30 27 27 23 22 18 14 12 16 18
24 28 36 43 48 41 48 43 50 51 50 47 39 34 34 37 20 33 37 37 35 33 34 31 28 26 24 20 15 14 12 13 18
24 23 23 31 36 36 39 53 52 52 52 51 51 38 32 39 34 34 34 38 39 40 39 35 31 26 23 22 20 18 16 17 19
Wind_Direction
201 197 194 187 187 195 189 182 184 185 180 174 170 164 159 155 152 148 140 133 143 152 146 133 133 128 130 122 119 111 104 113 115
205 205 201 195 196 194 196 189 185 184 182 179 176 169 162 161 159 158 146 141 152 140 136 134 136 133 132 126 126 123 122 114 113
210 209 209 203 201 199 195 193 190 186 184 180 178 173 169 167 165 160 155 149 157 137 147 147 136 139 137 129 134 137 132 123 118
213 213 214 210 208 206 201 194 190 185 184 179 178 178 177 174 169 165 163 152 153 149 161 158 152 149 146 140 143 144 132 125 118
214 215 215 215 212 210 205 196 188 185 183 182 179 176 174 180 177 170 173 154 155 157 168 163 153 145 149 146 145 137 127 117 121
219 220 222 221 214 214 206 193 187 185 182 178 175 177 175 177 183 180 175 164 160 165 171 158 147 141 144 150 144 134 125 118 114
223 226 228 228 223 216 210 187 188 187 182 178 179 187 184 186 190 187 183 173 168 173 172 157 148 141 140 136 138 134 130 126 121
225 226 227 226 223 223 202 183 179 184 186 188 181 184 186 186 191 195 190 177 174 177 171 161 154 148 146 146 146 140 135 131 127
230 228 228 221 228 193 180 178 174 184 185 189 184 187 187 192 193 195 193 182 178 171 168 162 158 153 150 148 147 142 138 134 130
215 227 214 205 183 174 177 180 181 183 188 185 191 193 193 196 198 198 192 189 180 174 169 167 165 164 159 156 154 151 144 138 135
210 208 200 192 189 199 205 186 180 192 192 200 194 191 197 200 202 196 195 194 184 178 175 172 174 168 162 160 148 145 144 140 136
208 202 200 201 200 188 192 187 189 194 201 205 185 191 208 205 197 194 194 186 177 178 176 175 171 167 162 156 147 142 147 147 149
212 214 193 188 163 171 192 187 190 193 196 196 197 205 205 203 194 193 196 179 187 185 178 177 166 157 154 156 159 156 159 162 163
215 214 200 193 191 199 185 187 194 196 189 190 196 202 186 194 188 190 186 173 169 165 155 163 160 162 164 165 168 172 170 172 175
215 217 210 202 204 198 186 187 184 187 191 190 189 192 191 195 200 203 192 188 178 169 168 166 165 168 171 170 169 168 170 180 191
215 211 208 201 204 196 196 196 200 192 192 182 183 186 191 197 197 196 178 178 169 178 172 177 176 171 170 172 174 172 178 184 189
206 201 207 205 203 202 205 202 195 198 191 185 178 161 175 180 178 185 184 178 192 176 175 183 180 187 192 185 179 186 193 199 201
207 205 205 198 202 207 209 209 208 196 192 194 186 166 175 170 172 173 175 188 198 185 189 185 197 191 191 192 188 198 195 169 157
218 219 210 200 198 198 203 207 209 206 197 195 192 196 194 178 184 184 184 186 195 195 183 183 187 190 192 184 188 190 200 194 160
224 220 225 227 216 206 202 196 198 198 203 202 202 202 202 194 186 183 181 185 184 184 182 183 185 189 187 195 202 200 198 189 175